Home > Weather > Ra'anana > Past weeks

Flag for Israel Past Weather in Ra'anana, Israel — Yesterday and Last 2 Weeks

Now
82 °F

Scattered clouds.


Feels Like: 89 °F
Forecast: 78 / 90 °F
Wind: 6 mph from Northwest

Location: Dov Airport

Current Time: Jun 25, 2016 at 6:55:19 PM

Latest Report: Jun 25, 2016 at 5:50 PM


Visibility: N/A

Pressure: 29.74 "Hg

Humidity: 79%

Dew Point: 75 °F

Location of Ra'ananaLocation

Past Weather in Ra'anana — Graph

°F

Ra'anana Temperature Yesterday

Maximum temperature yesterday: 86 °F (at 1:50 PM)
Minimum temperature yesterday: 75 °F (at 5:50 AM)
Average temperature yesterday: 82 °F

High & Low Weather Summary for the Past Weeks

 TemperatureHumidityPressure
High88 °F (Jun 15, 11:50 AM)94% (Jun 20, 5:50 AM)30.01 "Hg (Jun 20, 5:50 AM)
Low70 °F (Jun 12, 6:00 AM)31% (Jun 15, 7:50 AM)29.68 "Hg (Jun 24, 4:50 PM)
Average79 °F74%29.80 "Hg
* Reported Jun 10 5:50 PM — Jun 25 5:50 PM, Ra'anana, Weather by CustomWeather, © 2016

Note: Actual official high and low records may vary slightly from our data, if they occured in-between our weather recording intervals... More about our weather records

Advertising

Ra'anana Weather History for the Previous 24 Hours

Scroll right to see more
 ConditionsComfort  
Time TempWeatherWind HumidityBarometerVisibility
5:50 PM
Sat, Jun 25
82 °FScattered clouds.6 mph79%29.74 "HgN/A
4:50 PM84 °FPartly sunny.8 mph74%29.74 "HgN/A
3:50 PM84 °FPartly sunny.10 mph74%29.77 "HgN/A
2:50 PM86 °FPassing clouds.9 mph70%29.74 "HgN/A
1:50 PM86 °FSunny.12 mph70%29.74 "Hg10 mi
12:50 PM84 °FSunny.13 mph70%29.74 "Hg10 mi
11:50 AM84 °FSunny.10 mph74%29.74 "Hg10 mi
10:50 AM84 °FSunny.10 mph70%29.74 "Hg10 mi
9:50 AM82 °FPassing clouds.10 mph74%29.74 "Hg6 mi
8:50 AM81 °FPartly sunny.6 mph79%29.74 "Hg5 mi
7:50 AM77 °FPartly sunny.5 mph89%29.74 "Hg4 mi
6:50 AM75 °FPassing clouds.5 mph89%29.71 "Hg4 mi
5:50 AM77 °FPassing clouds.3 mph89%29.71 "Hg5 mi
5:00 AM77 °FPassing clouds.7 mph89%29.71 "Hg5 mi
9:50 PM
Fri, Jun 24
79 °FClear.3 mph89%29.71 "Hg10 mi
8:50 PM79 °FPassing clouds.3 mph89%29.71 "HgN/A
7:50 PM81 °FScattered clouds.6 mph84%29.68 "HgN/A
6:50 PM82 °FScattered clouds.7 mph79%29.71 "HgN/A
Weather by CustomWeather, © 2016

See weather overviewHow to use our weather pages